• In Deutschland
  • Länderverzeichnis
  • Für 7 Tage
  • Wassertemperatur
  • Satellitenkarten
  • Wetterkarte
  • Widgets
  • user-avatar
    Anmelden

    Stündliche Wetter Klagenfurt

    Heute, 25 September, Montag

    Zeit Temperatur Niederschläge Wind Luftdruck Luftfeuchtigkeit
    00:00 +9°C° 0,5 mm 1 m/S 692 mmHg 95%
    01:00 +10°C° 0 mm 1 m/S 692 mmHg 96%
    02:00 +9°C° 0,7 mm 1 m/S 692 mmHg 96%
    03:00 +9°C° 0,7 mm 1 m/S 692 mmHg 96%
    04:00 +9°C° 0,7 mm 1 m/S 692 mmHg 96%
    05:00 +9°C° 0,7 mm 1 m/S 692 mmHg 96%
    06:00 +9°C° 0,7 mm 1 m/S 692 mmHg 96%
    07:00 +10°C° 0 mm 1 m/S 692 mmHg 95%
    08:00 +10°C° 0,6 mm 1 m/S 692 mmHg 93%
    09:00 +11°C° 0,6 mm 1 m/S 692 mmHg 91%
    10:00 +12°C° 0,6 mm 1 m/S 692 mmHg 89%
    11:00 +12°C° 0,3 mm 1 m/S 692 mmHg 85%
    12:00 +13°C° 0,3 mm 1 m/S 692 mmHg 81%
    13:00 +14°C° 0,3 mm 1 m/S 693 mmHg 78%
    14:00 +14°C° 0,1 mm 1 m/S 692 mmHg 78%
    15:00 +14°C° 0,1 mm 1 m/S 692 mmHg 78%
    16:00 +14°C° 0,1 mm 1 m/S 692 mmHg 78%
    17:00 +12°C° 0 mm 1 m/S 692 mmHg 83%
    18:00 +11°C° 0 mm 1 m/S 692 mmHg 89%
    19:00 +10°C° 0 mm 1 m/S 692 mmHg 94%
    20:00 +9°C° 0 mm 1 m/S 692 mmHg 95%
    21:00 +9°C° 0 mm 1 m/S 693 mmHg 95%
    22:00 +9°C° 0 mm 1 m/S 693 mmHg 95%
    23:00 +9°C° 0 mm 1 m/S 693 mmHg 95%

    Morgen, 26 September, Dienstag

    Zeit Temperatur Niederschläge Wind Luftdruck Luftfeuchtigkeit
    00:00 +8°C° 0 mm 1 m/S 693 mmHg 96%
    01:00 +8°C° 0 mm 1 m/S 693 mmHg 96%
    02:00 +8°C° 0 mm 1 m/S 692 mmHg 96%
    03:00 +8°C° 0 mm 1 m/S 692 mmHg 96%
    04:00 +8°C° 0 mm 1 m/S 692 mmHg 96%
    05:00 +8°C° 0,1 mm 1 m/S 692 mmHg 95%
    06:00 +8°C° 0,1 mm 1 m/S 693 mmHg 94%
    07:00 +8°C° 0,1 mm 1 m/S 693 mmHg 93%
    08:00 +10°C° 0,1 mm 1 m/S 693 mmHg 89%
    09:00 +11°C° 0,1 mm 1 m/S 693 mmHg 84%
    10:00 +13°C° 0,1 mm 1 m/S 694 mmHg 79%
    11:00 +13°C° 0,2 mm 1 m/S 694 mmHg 78%
    12:00 +14°C° 0,2 mm 2 m/S 694 mmHg 77%
    13:00 +14°C° 0,2 mm 2 m/S 694 mmHg 77%
    14:00 +14°C° 0,1 mm 2 m/S 694 mmHg 78%
    15:00 +14°C° 0,1 mm 1 m/S 694 mmHg 79%
    16:00 +14°C° 0,1 mm 1 m/S 694 mmHg 80%
    17:00 +13°C° 0 mm 1 m/S 694 mmHg 84%
    18:00 +11°C° 0 mm 1 m/S 694 mmHg 89%
    19:00 +10°C° 0 mm 1 m/S 694 mmHg 94%
    20:00 +10°C° 0,1 mm 1 m/S 694 mmHg 94%
    21:00 +10°C° 0,1 mm 1 m/S 694 mmHg 93%
    22:00 +10°C° 0,1 mm 1 m/S 695 mmHg 93%
    23:00 +10°C° 0,1 mm 1 m/S 695 mmHg 93%

    übermorgen, 27 September, Mittwoch

    Zeit Temperatur Niederschläge Wind Luftdruck Luftfeuchtigkeit
    00:00 +10°C° 0,1 mm 1 m/S 695 mmHg 93%
    01:00 +10°C° 0,1 mm 1 m/S 694 mmHg 93%
    02:00 +9°C° 0 mm 1 m/S 694 mmHg 94%
    03:00 +9°C° 0 mm 1 m/S 694 mmHg 94%
    04:00 +9°C° 0 mm 1 m/S 694 mmHg 94%
    05:00 +9°C° 0 mm 1 m/S 694 mmHg 94%
    06:00 +9°C° 0 mm 1 m/S 695 mmHg 93%
    07:00 +10°C° 0 mm 1 m/S 695 mmHg 92%
    08:00 +12°C° 0 mm 1 m/S 695 mmHg 84%
    09:00 +14°C° 0 mm 1 m/S 696 mmHg 77%
    10:00 +16°C° 0 mm 1 m/S 696 mmHg 69%
    11:00 +16°C° 0,1 mm 2 m/S 696 mmHg 68%
    12:00 +17°C° 0,1 mm 2 m/S 696 mmHg 67%
    13:00 +17°C° 0,1 mm 2 m/S 696 mmHg 66%
    14:00 +17°C° 0,1 mm 2 m/S 696 mmHg 67%
    15:00 +17°C° 0,1 mm 2 m/S 696 mmHg 69%
    16:00 +16°C° 0,1 mm 1 m/S 695 mmHg 70%
    17:00 +15°C° 0 mm 1 m/S 695 mmHg 77%
    18:00 +13°C° 0 mm 1 m/S 695 mmHg 83%
    19:00 +11°C° 0 mm 1 m/S 695 mmHg 90%
    20:00 +11°C° 0 mm 1 m/S 695 mmHg 91%
    21:00 +11°C° 0 mm 1 m/S 696 mmHg 92%
    22:00 +10°C° 0 mm 1 m/S 696 mmHg 93%
    23:00 +10°C° 0 mm 1 m/S 696 mmHg 93%

    28 September, Donnerstag

    Zeit Temperatur Niederschläge Wind Luftdruck Luftfeuchtigkeit
    00:00 +9°C° 0 mm 1 m/S 696 mmHg 94%
    01:00 +9°C° 0 mm 1 m/S 696 mmHg 94%
    02:00 +9°C° 0 mm 1 m/S 695 mmHg 94%
    03:00 +8°C° 0 mm 1 m/S 695 mmHg 94%
    04:00 +8°C° 0 mm 1 m/S 695 mmHg 94%
    05:00 +9°C° 0 mm 1 m/S 696 mmHg 93%
    06:00 +9°C° 0 mm 1 m/S 696 mmHg 92%
    07:00 +9°C° 0 mm 1 m/S 696 mmHg 91%
    08:00 +12°C° 0 mm 1 m/S 696 mmHg 80%
    09:00 +14°C° 0 mm 1 m/S 697 mmHg 70%
    10:00 +16°C° 0 mm 1 m/S 697 mmHg 59%
    11:00 +17°C° 0 mm 2 m/S 697 mmHg 56%
    12:00 +18°C° 0 mm 2 m/S 697 mmHg 53%
    13:00 +19°C° 0 mm 2 m/S 697 mmHg 49%
    14:00 +18°C° 0 mm 2 m/S 697 mmHg 52%
    15:00 +17°C° 0 mm 2 m/S 696 mmHg 55%
    16:00 +17°C° 0 mm 2 m/S 696 mmHg 58%
    17:00 +15°C° 0 mm 1 m/S 696 mmHg 68%
    18:00 +12°C° 0 mm 1 m/S 696 mmHg 77%
    19:00 +10°C° 0 mm 1 m/S 695 mmHg 86%
    20:00 +10°C° 0 mm 1 m/S 696 mmHg 87%
    21:00 +9°C° 0 mm 1 m/S 696 mmHg 89%
    22:00 +9°C° 0 mm 1 m/S 696 mmHg 90%
    23:00 +8°C° 0 mm 1 m/S 696 mmHg 91%

    29 September, Freitag

    Zeit Temperatur Niederschläge Wind Luftdruck Luftfeuchtigkeit
    00:00 +8°C° 0 mm 1 m/S 695 mmHg 91%
    01:00 +8°C° 0 mm 1 m/S 695 mmHg 92%
    02:00 +7°C° 0 mm 1 m/S 695 mmHg 92%
    03:00 +7°C° 0 mm 1 m/S 695 mmHg 92%
    04:00 +7°C° 0 mm 1 m/S 695 mmHg 92%
    05:00 +7°C° 0 mm 1 m/S 695 mmHg 91%
    06:00 +8°C° 0 mm 1 m/S 695 mmHg 89%
    07:00 +8°C° 0 mm 1 m/S 695 mmHg 88%
    08:00 +11°C° 0 mm 1 m/S 695 mmHg 77%
    09:00 +13°C° 0 mm 1 m/S 696 mmHg 67%
    10:00 +16°C° 0 mm 1 m/S 696 mmHg 56%
    11:00 +16°C° 0 mm 2 m/S 696 mmHg 54%
    12:00 +17°C° 0 mm 2 m/S 696 mmHg 52%
    13:00 +18°C° 0 mm 2 m/S 696 mmHg 50%
    14:00 +17°C° 0 mm 2 m/S 695 mmHg 52%
    15:00 +17°C° 0 mm 2 m/S 695 mmHg 55%
    16:00 +16°C° 0 mm 1 m/S 695 mmHg 58%
    17:00 +14°C° 0 mm 1 m/S 694 mmHg 67%
    18:00 +12°C° 0 mm 1 m/S 694 mmHg 76%
    19:00 +9°C° 0 mm 1 m/S 694 mmHg 85%
    20:00 +9°C° 0 mm 1 m/S 694 mmHg 86%
    21:00 +8°C° 0 mm 1 m/S 694 mmHg 87%
    22:00 +7°C° 0 mm 0 m/S 694 mmHg 89%
    23:00 +6°C° 0 mm 0 m/S 694 mmHg 89%

    30 September, Samstag

    Zeit Temperatur Niederschläge Wind Luftdruck Luftfeuchtigkeit
    00:00 +6°C° 0 mm 0 m/S 693 mmHg 90%
    01:00 +6°C° 0 mm 0 m/S 693 mmHg 90%
    02:00 +6°C° 0 mm 0 m/S 693 mmHg 90%
    03:00 +5°C° 0 mm 0 m/S 693 mmHg 90%
    04:00 +6°C° 0 mm 1 m/S 692 mmHg 91%
    05:00 +7°C° 0 mm 1 m/S 692 mmHg 89%
    06:00 +7°C° 0 mm 1 m/S 692 mmHg 88%
    07:00 +7°C° 0 mm 1 m/S 692 mmHg 86%
    08:00 +10°C° 0 mm 1 m/S 693 mmHg 76%
    09:00 +12°C° 0 mm 1 m/S 693 mmHg 65%
    10:00 +15°C° 0 mm 1 m/S 693 mmHg 55%
    11:00 +15°C° 0 mm 1 m/S 693 mmHg 54%
    12:00 +16°C° 0 mm 1 m/S 693 mmHg 52%
    13:00 +18°C° 0 mm 1 m/S 692 mmHg 50%
    14:00 +16°C° 0 mm 1 m/S 692 mmHg 53%
    15:00 +15°C° 0 mm 1 m/S 692 mmHg 56%
    16:00 +15°C° 0 mm 1 m/S 691 mmHg 59%
    17:00 +13°C° 0 mm 1 m/S 691 mmHg 66%
    18:00 +11°C° 0 mm 1 m/S 691 mmHg 74%
    19:00 +9°C° 0 mm 1 m/S 691 mmHg 81%
    20:00 +8°C° 0 mm 1 m/S 691 mmHg 82%
    21:00 +7°C° 0 mm 0 m/S 690 mmHg 83%
    22:00 +6°C° 0 mm 0 m/S 690 mmHg 84%
    23:00 +6°C° 0 mm 0 m/S 690 mmHg 84%
    Mehr zeigen